Home   Weather   Scranton   Past weeks

Flag for USA Past Weather in Scranton, Pennsylvania, USA — Yesterday and Last 2 Weeks

45 °F


Feels Like: 40 °F
Forecast: 44 / 45 °F
Wind: 9 mph from Northwest

Location: Barre - Scranton - Wilkes-Barre / Scranton International Airport

Current Time: Oct 22, 2016 at 5:36:21 PM

Latest Report: Oct 22, 2016 at 4:54 PM

Visibility: 10 mi

Pressure: 29.61 "Hg

Humidity: 74%

Dew Point: 37 °F

Location of ScrantonLocation

Past Weather in Scranton — Graph


Scranton Temperature Yesterday

Maximum temperature yesterday: 77 °F (at 2:54 PM)
Minimum temperature yesterday: 50 °F (at 11:54 PM)
Average temperature yesterday: 63 °F

High & Low Weather Summary for the Past Weeks

High82 °F (Oct 18, 1:54 PM)100% (Oct 17, 2:54 AM)30.47 "Hg (Oct 17, 2:54 AM)
Low34 °F (Oct 11, 6:54 AM)34% (Oct 11, 4:54 PM)29.52 "Hg (Oct 21, 2:54 PM)
Average57 °F73%30.09 "Hg
* Reported Oct 7 3:54 PM — Oct 22 3:54 PM, Scranton, Weather by CustomWeather, © 2016

Note: Actual official high and low records may vary slightly from our data, if they occured in-between our weather recording intervals... More about our weather records


Scranton Weather History for the Previous 24 Hours

Scroll right to see more
Time TempWeatherWind HumidityBarometerVisibility
3:54 PM
Sat, Oct 22
44 °FOvercast.10 mph79%29.60 "Hg10 mi
2:54 PM44 °FLight rain. Mostly cloudy.12 mph82%29.60 "Hg10 mi
1:54 PM44 °FLight rain. Overcast.14 mph82%29.59 "Hg7 mi
12:54 PM43 °FLight rain. Mostly cloudy.12 mph86%29.59 "Hg8 mi
11:54 AM44 °FLight rain. Mostly cloudy.9 mph85%29.59 "Hg7 mi
10:54 AM44 °FLight rain. Mostly cloudy.12 mph85%29.57 "Hg8 mi
10:04 AM44 °FLight rain. Fog.9 mph85%29.57 "Hg5 mi
8:54 AM44 °FLight rain. Overcast.8 mph82%29.57 "Hg9 mi
7:54 AM44 °FLight rain. Overcast.6 mph85%29.54 "Hg10 mi
6:54 AM45 °FLight rain. Overcast.16 mph86%29.53 "Hg10 mi
5:54 AM46 °FLight rain. Overcast.16 mph83%29.54 "Hg10 mi
4:54 AM46 °FLight rain. Mostly cloudy.13 mph86%29.56 "Hg10 mi
3:54 AM48 °FMostly cloudy.14 mph83%29.57 "Hg10 mi
2:54 AM48 °FLight rain. Overcast.14 mph86%29.55 "Hg10 mi
1:54 AM50 °FMostly cloudy.12 mph77%29.58 "Hg10 mi
12:54 AM50 °FOvercast.15 mph83%29.54 "Hg10 mi
11:54 PM
Fri, Oct 21
50 °FLight rain. Overcast.14 mph83%29.58 "Hg10 mi
10:54 PM51 °FOvercast.10 mph83%29.60 "Hg10 mi
9:54 PM51 °FMostly cloudy.13 mph86%29.60 "Hg10 mi
8:54 PM51 °FLight rain. Fog.5 mph92%29.60 "Hg5 mi
7:54 PM52 °FRain. Fog.9 mph89%29.59 "Hg4 mi
6:54 PM53 °FLight rain. Overcast.8 mph86%29.61 "Hg10 mi
5:54 PM54 °FLight rain. Overcast.9 mph83%29.61 "Hg10 mi
Weather by CustomWeather, © 2016

See weather overviewHow to use our weather pages